Location: Goudex
(43.3760°N, 0.9543°E)
Time: 00:20:16
(UTC+00:00)

CZ-4 R/B - Pass Details

Date: 20 November 2019
Orbit: 529 x 601 km, 97.8° (Epoch: 05 December)

Event Time Altitude Azimuth Distance (km) Brightness Sun altitude
Rises 06:08:43 0° 30° (NNE) 2,696 5.0 -8.6°
Reaches altitude 10° 06:11:31 10° 52° (NE) 1,791 4.4 -8.2°
Maximum altitude 06:14:00 16° 92° (E) 1,424 4.7 -7.7°
Drops below altitude 10° 06:16:27 10° 133° (SE) 1,774 5.2 -7.3°
Sets 06:19:11 0° 155° (SSE) 2,657 5.6 -6.8°
